Regional Weather Roundup
Issued by NWS Raleigh/Durham, NC

Home | Current Version | Previous Version | Text Only | Print | Product List | Glossary On
Versions: 1 2 3 4 5 6 7 8 9 10 11 12 13 14 15 16 17 18 19 20 21 22 23 24 25 26 27
000
ASUS42 KRAH 250010
RWRRAH
NORTH CAROLINA WEATHER ROUNDUP
NATIONAL WEATHER SERVICE RALEIGH NC
800 PM EDT THU APR 24 2014

NOTE: "FAIR" INDICATES FEW OR NO CLOUDS BELOW 12,000 FEET WITH NO
SIGNIFICANT WEATHER AND/OR OBSTRUCTIONS TO VISIBILITY.

NCZ001-053-055-056-065-067-250100-
WESTERN NORTH CAROLINA

CITY           SKY/WX    TMP DP  RH WIND       PRES   REMARKS
ASHEVILLE      CLEAR     63  37  38 S9        29.99S
JEFFERSON      PTCLDY    59  32  35 SE6       30.02S
MORGANTON      PTCLDY    67  39  36 CALM      30.02S
HICKORY        PTCLDY    67  38  34 S3        29.97F
RUTHERFORDTON  CLEAR     67  40  37 S9        29.97F
MOUNT AIRY     PTCLDY    66  36  32 CALM      29.99R
BOONE          MOCLDY    60  32  35 CALM      30.02S
$$

NCZ021-022-025-041-071-084-088-250100-
CENTRAL NORTH CAROLINA

CITY           SKY/WX    TMP DP  RH WIND       PRES   REMARKS
CHARLOTTE      PTCLDY    69  43  38 CALM      29.98F
GREENSBORO     MOCLDY    65  37  35 SW6       29.99S
WINSTON-SALEM  PTCLDY    68  34  28 CALM      30.00S
RALEIGH-DURHAM MOCLDY    64  38  38 S5        30.01S
FORT BRAGG     CLEAR     69  40  34 S3        30.00S
FAYETTEVILLE   CLEAR     70  40  33 CALM      30.01R
CHAPEL HILL    CLEAR     61  42  49 CALM      30.01S
BURLINGTON     PTCLDY    66  36  32 SE3       29.99S
LAURINBURG     CLEAR     65  50  58 E3        30.01S
$$

NCZ011-015-027-028-043-044-047-080-103-250100-
NORTHEASTERN NORTH CAROLINA

CITY           SKY/WX    TMP DP  RH WIND       PRES   REMARKS
ROCKY MT-WILSO PTCLDY    59  43  55 CALM      30.03R
GREENVILLE     PTCLDY    59  41  51 CALM      30.05R
WASHINGTON     CLEAR     63  31  29 CALM      30.04R
ELIZABETH CITY CLEAR     56  45  66 SE10      30.04R
MANTEO         PTCLDY    52  42  68 SE3       30.05R
CAPE HATTERAS  PTCLDY    56  43  61 SE8       30.05R
$$

NCZ078-087-090-091-093-098-101-250100-
SOUTHEASTERN NORTH CAROLINA

CITY           SKY/WX    TMP DP  RH WIND       PRES   REMARKS
LUMBERTON      CLEAR     61  53  75 CALM      30.00S
GOLDSBORO      CLEAR     63  39  42 NE1       30.01R
KINSTON        CLEAR     61  41  48 CALM      30.04R
KENANSVILLE    CLEAR     59  45  59 CALM      30.03R
NEW BERN       CLEAR     61  44  53 S6        30.05R
CHERRY POINT   PTCLDY    57  43  59 S5        30.05R
BEAUFORT       CLEAR     57  42  57 SE5       30.05R
JACKSONVILLE   CLEAR     59  45  59 S5        30.04R
WILMINGTON     PTCLDY    63  45  51 SE5       30.04R
$$




USA.gov is the U.S. government's official web portal to all federal, state and local government web resources and services.